User: anonymous   Login
Location: Maddington
(51.2000°N, 1.9167°W)
Time: 08:22:26
(UTC+00:00)
Language:

Cosmos 2098 Rocket - Orbit

View from above orbital plane
View from above orbital plane
View from above satellite
View from above satellite

Ground track
Ground track

The orbit data is extracted from the following two-line orbital elements,

1 20775U 90078B   20329.87002459 +.00001802 +00000-0 +84498-4 0  9994
2 20775 082.9264 094.3026 0572381 057.6189 307.9069 14.34974674528749
Epoch (UTC): 24 November 2020 20:52:50
Eccentricity: 0.0572381
inclination: 82.9264°
perigee height: 366 km
apogee height: 1184 km
right ascension of ascending node: 94.3026°
argument of perigee: 57.6189°
revolutions per day: 14.34974674
mean anomaly at epoch: 307.9069°
orbit number at epoch: 52874

The dashed part of the orbit path shows where the satellite is in the earth's shadow,  

DLR